Wind_Speed
18 18 18 17 19 20 22 24 27 30 32 34 35 35 36 38 37 48 54 55 49 53 49 45 41 39 38 34 33 33 34 34 40 34 34 35 37 35 33 38 45 48 47
17 17 17 19 22 23 23 22 22 25 28 31 33 35 36 37 38 40 52 48 52 42 43 41 42 41 40 38 38 37 37 39 38 39 39 39 39 44 46 47 49 51 55
17 15 16 19 19 21 21 20 21 21 24 27 30 32 32 34 37 36 45 53 45 46 46 44 43 43 44 41 40 40 37 38 41 44 44 43 44 45 45 48 47 54 59
17 18 17 19 17 19 20 19 18 19 23 26 28 30 29 29 33 34 35 46 40 39 40 44 44 46 43 42 40 37 39 46 43 42 43 43 47 49 51 47 52 57 61
5 15 17 15 15 15 16 16 17 19 18 17 21 24 26 27 27 29 28 34 41 40 39 40 43 40 37 36 39 44 48 42 42 41 43 46 43 40 42 47 47 47 43
13 5 10 15 14 13 15 18 16 15 16 20 19 18 19 22 26 25 27 28 30 43 29 25 29 33 38 43 46 46 44 40 38 39 42 49 48 47 46 39 41 39 41
37 24 13 12 4 4 12 15 15 17 18 21 21 19 16 20 22 22 24 25 25 29 32 36 37 37 42 45 40 38 38 44 43 44 44 41 43 46 43 45 45 44 44
33 28 21 17 20 17 11 17 19 20 21 22 24 20 18 20 21 25 31 33 38 38 35 32 31 34 34 33 34 34 31 31 36 38 40 39 39 39 43 46 51 51 52
25 27 23 15 12 16 17 12 3 9 16 18 15 15 19 19 18 19 25 28 30 35 35 30 31 27 25 31 29 28 30 32 34 39 40 44 43 45 47 48 47 47 47
22 22 22 21 19 18 19 23 24 20 15 7 7 15 16 13 13 11 11 4 16 19 24 21 24 26 26 26 29 31 33 36 40 43 44 46 47 47 47 48 50 49 49
17 17 18 18 17 15 14 15 14 14 14 14 14 12 9 8 8 5 5 6 11 14 20 22 25 26 29 30 33 35 37 39 41 42 44 46 47 48 48 49 51 51 52
14 13 12 12 11 11 11 10 9 9 8 6 5 3 3 6 8 10 13 15 18 21 23 25 27 29 31 32 34 36 38 40 42 43 44 44 45 45 45 46 47 48 50
13 12 12 12 11 11 10 10 9 7 6 4 4 6 8 9 11 13 15 17 20 22 24 26 29 31 33 34 35 37 39 40 40 41 42 43 43 45 45 45 45 47 49
12 12 12 11 10 10 10 10 10 10 9 9 8 8 9 10 12 14 16 18 21 23 24 26 29 31 34 36 36 37 37 38 39 40 40 41 41 42 43 43 44 45 47
11 11 11 11 10 10 9 9 10 10 11 11 12 13 14 15 16 18 20 22 24 26 28 30 32 32 32 33 33 34 34 35 36 37 37 38 38 39 39 40 41 43 44
14 14 15 15 14 14 14 14 14 14 14 14 15 16 17 18 19 20 22 24 26 28 29 29 29 29 29 29 30 31 32 32 33 34 34 36 36 36 36 35 36 37 38
16 17 17 17 17 17 17 17 17 17 18 18 19 19 20 21 22 22 23 26 28 29 28 28 28 28 28 29 30 30 30 31 32 33 33 33 33 33 34 33 33 33 33
20 20 20 20 20 20 20 20 20 20 21 22 22 23 23 25 27 29 30 31 32 32 32 31 30 30 30 30 29 30 29 29 30 30 30 31 31 32 32 32 31 31 29
26 26 26 25 25 24 24 23 23 23 23 24 24 24 24 26 29 32 34 34 34 33 31 31 30 30 29 30 29 29 28 27 28 28 27 28 29 30 30 31 30 29 28
29 29 29 28 27 27 27 27 27 26 26 25 24 23 23 28 30 31 33 34 34 34 32 32 31 30 29 28 27 26 26 26 25 24 25 27 28 29 30 30 29 29 27
35 34 34 32 31 31 30 29 29 28 28 27 26 23 27 28 30 34 34 34 34 32 32 31 29 28 27 26 26 26 26 25 25 27 28 29 29 29 28 28 27 26 25
39 37 37 35 34 33 32 32 31 29 28 27 26 25 28 29 31 35 35 34 34 33 31 28 26 25 25 25 24 23 21 22 25 25 25 26 26 26 26 26 26 25 25
40 39 38 37 36 36 35 33 32 31 29 28 28 26 29 31 32 34 32 32 34 32 29 26 23 23 22 21 19 17 19 22 23 24 23 24 25 26 27 28 27 26 25
43 42 41 39 38 37 36 34 34 32 30 29 27 28 29 30 32 32 32 32 32 31 27 23 21 21 18 16 17 18 20 22 22 22 22 23 26 27 27 25 24 23 22
42 43 44 42 39 38 37 36 35 32 31 29 28 29 31 34 32 30 30 31 30 27 23 20 19 18 14 14 16 17 19 20 20 20 21 24 26 26 24 22 21 19 18
39 39 41 40 39 37 36 36 35 34 33 30 31 32 32 33 29 27 29 28 26 23 20 19 18 14 13 14 14 17 18 16 17 19 20 23 24 23 21 20 18 17 15
Wind_Direction
226 231 238 242 243 244 247 249 251 250 249 249 251 251 254 254 244 238 239 244 236 242 240 239 242 248 247 256 263 264 269 270 272 285 286 285 288 281 277 271 256 257 261
247 245 246 251 252 256 260 263 262 260 255 252 252 252 251 252 256 241 238 241 241 243 241 240 243 245 247 254 255 261 263 269 274 277 278 276 281 282 285 280 266 262 262
252 257 257 260 262 261 262 259 257 256 256 254 253 254 249 242 245 250 239 237 245 243 238 241 244 242 247 253 258 264 264 266 269 275 286 282 288 285 286 278 270 268 266
242 244 247 257 267 267 264 258 256 262 266 261 257 254 255 255 249 243 238 232 241 240 236 237 240 245 249 253 260 260 272 273 278 285 280 287 289 286 288 280 286 280 272
221 225 234 252 265 263 243 247 256 266 256 260 257 255 250 247 242 244 230 231 235 242 237 238 241 249 255 259 260 262 271 275 270 273 279 285 272 271 274 279 282 278 275
35 162 216 231 245 256 244 246 241 253 246 256 249 249 246 240 234 228 229 230 232 247 246 237 245 249 253 256 261 263 263 265 265 274 275 271 269 285 288 281 285 279 280
41 60 65 49 5 273 255 248 247 251 256 260 258 254 231 236 223 226 231 230 243 248 240 243 246 251 255 256 261 266 265 266 264 264 269 276 278 281 276 281 285 288 284
49 57 63 57 49 30 349 269 257 258 257 270 263 250 255 255 247 239 234 228 234 239 244 246 248 250 260 268 259 253 260 269 272 270 270 275 276 276 276 277 280 281 282
43 55 61 73 60 44 50 62 299 262 258 247 247 227 243 242 236 238 236 236 234 239 246 238 246 242 251 256 263 267 269 272 273 274 270 276 278 277 276 276 278 280 281
32 40 47 48 56 54 50 59 64 66 63 98 141 190 211 200 210 205 179 185 197 211 215 237 249 253 252 259 264 266 269 269 268 270 276 278 278 279 279 279 281 279 278
29 33 35 35 33 31 32 34 38 46 51 59 60 74 97 136 178 198 239 236 228 232 242 250 257 261 265 268 269 269 270 270 272 273 274 276 277 278 279 280 281 282 281
23 27 33 32 28 19 17 24 27 29 31 27 18 352 290 249 235 235 238 245 252 257 262 268 272 271 272 274 275 276 275 276 278 279 281 282 284 285 284 283 281 280 277
7 9 9 8 9 11 8 7 3 356 343 321 289 274 268 270 270 269 269 269 270 272 273 274 273 274 275 276 277 279 280 282 285 287 289 289 290 288 286 284 282 281 281
354 354 352 352 352 352 350 346 341 335 327 316 302 288 277 270 267 265 265 266 267 269 272 274 279 283 285 286 287 287 288 288 288 288 288 286 285 284 283 282 280 277 276
340 339 336 334 333 330 326 323 320 315 311 306 302 300 298 296 295 295 293 291 290 291 291 289 287 285 284 284 286 288 288 289 289 289 289 289 288 288 287 285 283 282 282
325 327 326 326 326 325 324 323 320 317 315 313 309 305 302 299 296 296 297 296 296 296 294 291 288 286 286 286 287 288 290 291 293 295 296 297 296 296 295 295 293 290 288
310 312 314 315 316 317 316 315 314 313 312 311 310 309 307 305 304 303 303 304 306 305 302 299 296 295 294 295 297 299 301 302 304 305 305 304 302 299 299 302 305 305 302
303 304 306 308 309 310 311 311 311 310 310 310 309 310 312 315 316 315 314 313 313 312 309 305 303 301 300 302 304 306 309 311 312 314 313 312 310 306 301 298 300 303 307
298 299 301 302 303 304 304 304 304 304 305 305 307 310 315 321 321 318 315 313 312 311 307 305 303 305 308 311 313 314 317 319 320 319 318 315 311 307 304 298 297 299 302
287 287 289 292 295 297 298 298 299 299 299 299 300 303 314 320 318 317 314 310 311 311 309 308 308 308 309 309 311 314 316 317 317 318 321 325 321 315 309 305 299 297 298
289 288 288 288 290 290 290 290 290 290 291 292 293 293 305 310 317 319 315 312 310 307 306 304 303 304 306 308 311 314 315 318 322 321 320 321 321 319 313 308 301 298 297
286 285 284 284 283 284 284 284 285 283 283 283 284 286 303 310 316 317 311 307 306 304 304 303 303 304 306 311 315 317 319 321 322 321 319 319 317 317 315 312 308 302 297
280 281 281 282 282 282 283 283 281 279 278 278 281 288 303 307 314 313 306 305 303 302 302 300 299 301 308 312 316 319 320 320 320 320 321 321 321 317 312 309 305 301 298
282 281 281 281 281 282 282 281 278 276 274 273 277 290 300 301 307 306 302 303 301 300 296 294 295 302 306 308 311 313 316 319 321 325 325 324 322 321 319 315 310 306 302
291 287 283 281 280 280 279 277 277 274 271 270 274 288 293 295 302 300 301 300 298 293 290 290 295 300 297 304 308 311 314 319 323 326 326 327 328 328 327 324 319 316 309
285 283 281 280 279 279 278 277 276 273 269 270 275 290 294 295 298 297 298 296 291 287 285 289 297 290 293 301 309 315 317 319 326 328 328 331 334 334 332 329 323 321 318
Height
2990 2993 2997 3000 3002 3005 3008 3011 3015 3018 3021 3024 3027 3029 3032 3035 3039 3043 3048 3053 3058 3061 3070 3075 3079 3084 3086 3088 3089 3091 3092 3091 3090 3093 3094 3096 3094 3096 3096 3096 3097 3096 3097
2989 2992 2994 2996 2998 3000 3004 3007 3009 3011 3014 3016 3018 3021 3024 3026 3029 3034 3039 3044 3047 3051 3059 3065 3070 3074 3076 3078 3080 3082 3083 3084 3084 3081 3083 3083 3083 3085 3084 3082 3081 3082 3083
2983 2988 2989 2990 2994 2995 2997 2999 3001 3003 3006 3008 3009 3012 3014 3017 3020 3024 3029 3035 3041 3045 3050 3056 3061 3064 3067 3070 3072 3073 3073 3073 3073 3072 3071 3070 3069 3069 3068 3067 3068 3068 3067
2980 2983 2986 2987 2989 2990 2992 2994 2995 2997 2999 3001 3002 3004 3007 3010 3012 3014 3019 3027 3033 3038 3042 3047 3051 3055 3058 3061 3062 3064 3064 3063 3063 3061 3060 3059 3055 3055 3052 3054 3055 3053 3052
2979 2980 2983 2984 2986 2987 2987 2989 2991 2993 2995 2996 2997 2998 2999 3002 3004 3009 3012 3020 3026 3030 3034 3038 3042 3046 3050 3052 3054 3054 3053 3053 3052 3051 3049 3047 3046 3044 3044 3044 3039 3038 3037
2974 2974 2978 2980 2982 2984 2985 2985 2987 2988 2990 2992 2991 2992 2993 2996 2999 3003 3009 3015 3019 3022 3025 3028 3035 3037 3041 3042 3043 3042 3042 3042 3041 3040 3040 3038 3036 3033 3033 3033 3031 3029 3025
2978 2975 2977 2979 2980 2983 2982 2983 2984 2986 2986 2987 2988 2988 2989 2991 2995 3000 3005 3009 3013 3017 3020 3023 3025 3028 3031 3031 3031 3031 3032 3032 3030 3031 3030 3028 3026 3025 3023 3021 3020 3017 3015
2990 2985 2985 2984 2983 2982 2981 2980 2981 2982 2982 2983 2983 2985 2987 2990 2993 2995 2997 3000 3004 3008 3013 3015 3017 3020 3021 3022 3021 3023 3022 3022 3022 3022 3020 3019 3017 3015 3013 3009 3008 3005 3003
3000 2995 2992 2990 2989 2986 2984 2982 2979 2980 2980 2979 2979 2981 2984 2986 2990 2989 2991 2994 2999 3002 3007 3008 3009 3011 3012 3015 3015 3014 3014 3014 3014 3013 3012 3008 3005 3003 3001 2998 2996 2993 2989
3004 3001 2998 2996 2993 2992 2989 2987 2985 2983 2982 2980 2979 2980 2982 2985 2987 2989 2991 2994 2996 2999 3002 3003 3005 3006 3007 3007 3007 3007 3005 3005 3004 3002 3000 2997 2994 2992 2989 2986 2983 2981 2978
3007 3005 3002 2999 2997 2995 2994 2992 2989 2988 2987 2985 2985 2985 2987 2989 2992 2993 2994 2995 2997 2999 3000 3001 3001 3001 3000 3000 2999 2998 2997 2995 2992 2991 2990 2987 2984 2980 2978 2975 2971 2967 2964
3011 3009 3006 3004 3003 3001 2999 2996 2995 2992 2990 2989 2989 2990 2992 2993 2994 2994 2994 2994 2995 2995 2995 2995 2995 2994 2992 2990 2989 2987 2986 2983 2981 2979 2977 2974 2970 2968 2965 2961 2957 2954 2950
3012 3009 3007 3005 3003 3001 3000 2998 2997 2996 2995 2995 2994 2993 2993 2992 2991 2990 2990 2990 2990 2989 2989 2988 2987 2986 2985 2983 2981 2978 2975 2972 2969 2966 2962 2959 2955 2953 2950 2947 2944 2940 2937
3011 3008 3006 3004 3002 3001 2999 2998 2997 2997 2996 2995 2995 2994 2993 2992 2991 2990 2988 2987 2986 2984 2984 2983 2981 2978 2976 2973 2969 2966 2963 2960 2957 2954 2951 2947 2944 2941 2938 2934 2931 2928 2925
3011 3009 3007 3005 3002 3001 2999 2998 2997 2996 2994 2993 2992 2991 2989 2988 2987 2985 2984 2982 2980 2978 2976 2973 2971 2968 2965 2961 2959 2956 2953 2950 2946 2943 2939 2935 2932 2928 2925 2921 2916 2913 2911
3007 3006 3004 3002 3000 2998 2997 2995 2993 2991 2990 2988 2987 2985 2984 2983 2981 2979 2977 2976 2974 2971 2968 2965 2961 2958 2956 2952 2950 2946 2942 2939 2935 2931 2927 2922 2919 2915 2912 2909 2905 2902 2899
3004 3002 3000 2998 2996 2994 2992 2990 2988 2986 2984 2982 2981 2979 2977 2976 2974 2972 2970 2967 2964 2961 2958 2954 2951 2948 2945 2943 2939 2936 2933 2928 2924 2920 2916 2912 2908 2904 2901 2897 2894 2891 2888
2999 2997 2995 2993 2991 2989 2986 2984 2982 2980 2978 2977 2975 2973 2972 2970 2967 2965 2962 2958 2956 2952 2949 2946 2943 2940 2937 2934 2930 2926 2922 2917 2913 2909 2905 2902 2897 2894 2892 2890 2887 2884 2881
2992 2990 2988 2986 2984 2981 2979 2977 2975 2973 2972 2970 2968 2966 2964 2962 2959 2956 2952 2949 2946 2942 2939 2936 2933 2929 2926 2922 2919 2915 2911 2908 2904 2901 2898 2895 2891 2888 2885 2882 2880 2877 2874
2983 2981 2979 2977 2975 2973 2971 2969 2967 2965 2963 2962 2960 2958 2956 2953 2950 2947 2944 2941 2937 2933 2929 2925 2922 2920 2917 2915 2912 2909 2905 2902 2899 2895 2891 2887 2882 2879 2876 2873 2871 2869 2867
2974 2972 2969 2968 2966 2964 2962 2960 2958 2956 2955 2953 2951 2949 2947 2944 2941 2937 2933 2930 2927 2924 2921 2918 2916 2914 2911 2908 2905 2902 2898 2894 2891 2887 2883 2879 2876 2873 2869 2866 2864 2861 2859
2963 2961 2959 2957 2956 2954 2952 2951 2949 2947 2945 2943 2942 2939 2937 2933 2930 2927 2924 2922 2919 2917 2914 2911 2908 2905 2903 2900 2897 2895 2892 2887 2884 2881 2878 2874 2871 2867 2864 2860 2857 2854 2852
2950 2949 2948 2947 2946 2944 2942 2941 2939 2937 2935 2934 2932 2930 2928 2925 2922 2920 2917 2914 2911 2909 2906 2903 2902 2900 2896 2894 2891 2889 2887 2884 2880 2876 2872 2868 2865 2861 2857 2853 2850 2847 2844
2938 2937 2936 2935 2935 2933 2932 2930 2928 2926 2925 2923 2922 2921 2919 2917 2913 2911 2909 2906 2903 2900 2898 2896 2895 2892 2890 2888 2886 2884 2882 2878 2874 2870 2867 2864 2860 2855 2851 2846 2843 2840 2837
2927 2925 2924 2923 2922 2921 2920 2918 2917 2916 2914 2913 2912 2911 2909 2907 2902 2901 2900 2898 2895 2893 2891 2889 2888 2886 2884 2882 2880 2879 2876 2873 2869 2865 2862 2859 2855 2850 2845 2841 2838 2835 2833
2913 2912 2911 2910 2910 2910 2909 2908 2907 2905 2905 2904 2902 2901 2899 2897 2893 2893 2891 2889 2887 2886 2884 2883 2882 2881 2879 2877 2875 2872 2870 2867 2865 2862 2859 2855 2850 2846 2842 2838 2835 2832 2829